Overview Statistics Trail Chart Weather Telemetry Raw packets
 

This is the latest recevied weather packets stored in our database for station/object KD4EED. If no packets are shown the sender has not sent any weather packets the latest 10 day(s).

<< 88 89 90 91 92 93 94 >>
Time Temp. Humidity Pressure Rain* Wind** Luminosity Snow
1788026924 32.22° C 55% 1010 hPa - - 531 W/m² -
1788026619 32.22° C 56% 1009.9 hPa - - 522 W/m² -
1788026314 31.67° C 58% 1009.9 hPa - - 434 W/m² -
1788026010 31.11° C 59% 1009.9 hPa - - 469 W/m² -
1788025709 30.56° C 59% 1010.2 hPa - - 476 W/m² -
1788025408 30° C 62% 1010.2 hPa - - 483 W/m² -
1788025104 29.44° C 63% 1010.2 hPa - - 449 W/m² -
1788024803 29.44° C 66% 1010.4 hPa - - 393 W/m² -
1788024500 28.89° C 66% 1010.2 hPa - - 366 W/m² -
1788024207 28.33° C 67% 1010.3 hPa - - 77 W/m² -
1788023895 28.33° C 68% 1010.2 hPa - - 66 W/m² -
1788023590 27.78° C 69% 1010.3 hPa - - 64 W/m² -
1788023286 27.78° C 70% 1010.2 hPa - - 66 W/m² -
1788022980 27.22° C 71% 1010.2 hPa - - 66 W/m² -
1788022678 27.22° C 71% 1010.2 hPa - - 62 W/m² -
1788022377 27.22° C 70% 1010.3 hPa - - 56 W/m² -
1788022076 26.67° C 72% 1010 hPa - - 60 W/m² -
1788021771 26.67° C 72% 1010.1 hPa - - 51 W/m² -
1788021469 26.67° C 72% 1010 hPa - - 64 W/m² -
1788021173 26.11° C 73% 1010.1 hPa - - 49 W/m² -
1788020859 26.11° C 74% 1010 hPa - - 55 W/m² -
1788020553 25.56° C 74% 1010.1 hPa - - 49 W/m² -
1788020250 25.56° C 77% 1010 hPa - - 40 W/m² -
1788019946 25.56° C 78% 1010.1 hPa - - 41 W/m² -
1788019640 25° C 80% 1010 hPa - - 48 W/m² -

* Rain since midnight (hover to see other rain measurements)
** Current wind speed in m/s (hover to see current wind gust speed)